Flag for Congo Weather past 2 weeks in Brazzaville, Congo

Now
88 °F

Passing clouds.


Feels Like: 94 °F
Forecast: 73 / 85 °F
Wind: 5 mph from West

Location: Brazzaville / Maya-Maya

Current Time: Dec 26, 2014 at 6:15:41 PM

Latest Report: Dec 26, 2014 at 5:00 PM


Visibility: N/A

Pressure: 29.80 "Hg

Humidity: 59%

Dew point: 72 °F

Location of BrazzavilleLocation

Historic Weather in Brazzaville — Graph

°F

Brazzaville temperature yesterday

Maximum temperature yesterday: 86 °F (at 3:00 PM)
Minimum temperature yesterday: 72 °F (at 2:00 AM)
Average temperature yesterday: 77 °F

Past Weeks' High & Low Weather Summary

 TemperatureHumidityPressure
High93 °F (Dec 20, 4:00 PM)100% (Dec 22, 3:00 AM)30.04 "Hg (Dec 22, 3:00 AM)
Low70 °F (Dec 22, 3:00 AM)46% (Dec 17, 4:00 PM)29.74 "Hg (Dec 13, 4:00 PM)
Average78 °F80%29.91 "Hg
* Reported Dec 11 5:00 PM — Dec 26 5:00 PM, Brazzaville, Weather by CustomWeather, © 2014

Note: Actual official high and low records may vary slightly from our data, if they occured in-between our weather recording intervals... More about our weather records

Advertising

Brazzaville weather history for previous 24 hours

 ConditionsComfort  
Time TempWeatherWind HumidityBarometerVisibility
5:00 PM
Dec 26
88 °FPassing clouds.5 mph59%29.80 "HgN/A
4:00 PM90 °FScattered clouds.5 mph59%29.80 "HgN/A
3:00 PM90 °FPartly sunny.6 mph55%29.80 "HgN/A
2:00 PM90 °FPartly sunny.7 mph55%29.83 "HgN/A
1:00 PM88 °FScattered clouds.7 mph59%29.86 "HgN/A
12:00 PM86 °FPassing clouds.6 mph62%29.89 "HgN/A
11:00 AM82 °FPassing clouds.3 mph66%29.92 "HgN/A
10:00 AM82 °FPassing clouds.5 mph66%29.95 "HgN/A
9:00 AM79 °FPassing clouds.6 mph74%29.98 "HgN/A
8:00 AM75 °FPassing clouds.5 mph89%29.98 "Hg5 mi
7:00 AM73 °FPassing clouds.3 mph89%29.95 "Hg5 mi
6:00 AM72 °FClear.1 mph94%29.95 "Hg5 mi
5:00 AM72 °FClear.5 mph94%29.92 "Hg5 mi
4:00 AM73 °FClear.No wind89%29.92 "Hg5 mi
3:00 AM73 °FClear.2 mph94%29.92 "Hg5 mi
2:00 AM75 °FClear.3 mph83%29.92 "Hg5 mi
1:00 AM75 °FClear.3 mph83%29.95 "Hg5 mi
12:00 AM75 °FClear.3 mph83%29.95 "Hg5 mi
11:00 PM
Dec 25
75 °FClear.3 mph83%29.98 "Hg5 mi
9:00 PM77 °FClear.5 mph79%29.95 "Hg10 mi
8:00 PM77 °FClear.5 mph79%29.95 "Hg10 mi
7:00 PM79 °FPassing clouds.5 mph74%29.92 "HgN/A
6:00 PM81 °FPassing clouds.8 mph70%29.89 "HgN/A
Weather by CustomWeather, © 2014

See weather overviewHow to use our weather pages